Flag for Germany Weather past 2 weeks in Westerstede, Lower Saxony, Germany

Now
41 °F

Partly cloudy.


Feels Like: 36 °F
Forecast: 37 / 49 °F
Wind: 8 mph from Southwest

Location: Wittmundhaven

Current Time: Mar 27, 2015 at 6:33:51 AM

Latest Report: Mar 27, 2015 at 5:20 AM


Visibility: N/A

Pressure: 29.68 "Hg

Humidity: 87%

Dew point: 37 °F

Location of WesterstedeLocation

Historic Weather in Westerstede — Graph

°F

Westerstede temperature yesterday

Maximum temperature yesterday: 45 °F (at 11:20 AM)
Minimum temperature yesterday: 39 °F (at 3:20 AM)
Average temperature yesterday: 42 °F

Past Weeks' High & Low Weather Summary

 TemperatureHumidityPressure
High57 °F (Mar 17, 3:20 PM)100% (Mar 12, 5:20 AM)30.54 "Hg (Mar 12, 5:20 AM)
Low27 °F (Mar 12, 5:20 AM)31% (Mar 19, 3:20 PM)29.65 "Hg (Mar 26, 10:20 PM)
Average41 °F79%30.17 "Hg
* Reported Mar 12 5:20 AM — Mar 27 5:20 AM, Westerstede, Weather by CustomWeather, © 2015

Note: Actual official high and low records may vary slightly from our data, if they occured in-between our weather recording intervals... More about our weather records

Advertising

Westerstede weather history for previous 24 hours

 ConditionsComfort  
Time TempWeatherWind HumidityBarometerVisibility
5:20 AM
Fri, Mar 27
41 °FPartly cloudy.8 mph87%29.68 "HgN/A
4:20 AM41 °FLight rain. Partly cloudy.8 mph93%29.68 "HgN/A
3:45 AM41 °FLight rain. Passing clouds.7 mph93%29.68 "Hg6 mi
3:20 AM41 °FLight rain. Partly cloudy.12 mph93%29.68 "HgN/A
2:20 AM41 °FDrizzle. Fog.13 mph100%29.65 "Hg2 mi
1:20 AM41 °FDrizzle. Fog.10 mph93%29.65 "Hg3 mi
12:20 AM39 °FPassing clouds.10 mph93%29.65 "Hg4 mi
11:20 PM
Thu, Mar 26
39 °FDrizzle. Fog.13 mph93%29.65 "Hg3 mi
10:20 PM39 °FDrizzle. Fog.13 mph93%29.65 "Hg3 mi
9:20 PM39 °FLight rain. Partly cloudy.12 mph93%29.68 "Hg6 mi
8:20 PM39 °FLight rain. Partly cloudy.10 mph93%29.68 "HgN/A
7:20 PM39 °FLight rain. Passing clouds.8 mph87%29.68 "HgN/A
6:50 PM41 °FLight rain. Partly sunny.8 mph81%29.71 "HgN/A
6:20 PM41 °FPartly sunny.8 mph81%29.68 "HgN/A
5:20 PM41 °FBroken clouds.10 mph81%29.68 "HgN/A
4:20 PM45 °FBroken clouds.9 mph61%29.68 "HgN/A
3:20 PM45 °FBroken clouds.13 mph61%29.68 "HgN/A
2:20 PM45 °FPartly sunny.10 mph57%29.68 "HgN/A
1:20 PM45 °FPartly sunny.12 mph61%29.71 "HgN/A
12:20 PM43 °FPartly sunny.12 mph61%29.71 "HgN/A
11:20 AM45 °FPartly sunny.10 mph57%29.74 "HgN/A
10:20 AM43 °FPartly sunny.9 mph61%29.74 "HgN/A
9:20 AM43 °FPartly sunny.12 mph66%29.74 "HgN/A
8:20 AM41 °FPartly sunny.9 mph81%29.74 "HgN/A
7:20 AM43 °FPartly sunny.7 mph93%29.74 "HgN/A
6:20 AM41 °FPartly sunny.3 mph87%29.71 "HgN/A
Weather by CustomWeather, © 2015

See weather overviewHow to use our weather pages